Find OneWeb SL0066

NORAD ID: 45424 Int'l Des: 2020-020 Owner: ONEWEB Country: UK Constellation: oneweb operational
LEOCIRCULARPOLARONEWEB_TYPE

当前视图

正在加载3D地球...

About OneWeb SL0066

OneWeb SL0066 (NORAD 45424) is a oneweb constellation satellite launched Mar 21, 2020 by ONEWEB of UK. It operates in LEO, CIRCULAR, POLAR, ONEWEB_TYPE orbit with a mass of 148.00 kg.

关于 OneWeb SL0066

正在加载描述...

即将过境

Passes for default location (London). Set your location on the main map for personalized predictions.

高度历史

Loading altitude history...

两行轨道根数

1 45424U 20020A 26170.58818957 .00000157 00000-0 40627-3 0 9995
2 45424 87.8883 20.5931 0001646 82.2237 277.9078 13.11413686302991
Epoch: Jun 19, 2026 • Age: 6 hours

当前状态

高度 1221.8 km
速度 7.24 km/s
星下点 -5.56°S, 15.62°W
发射日期 Mar 21, 2020
运行时间 6.2 years
类型 internet

技术详情

分类 Payload
质量 148.00 kg
干质量 140.00 kg
总质量 148.00 kg
长度 1.30 m
直径 1.00 m
跨度 5.00 m
形状 Trapezoid+2 pan
制造商 ONEWUS
平台类型 ARROW
阶段状态 In Orbit
所有者/国家 ONEWEB/UK

Most Searched